Time+03,TemperatureF,Dew PointF,Humidity,Sea Level PressureIn,VisibilityMPH,Wind Direction,Wind SpeedMPH,Gust SpeedMPH,PrecipitationIn,Events,Conditions,WindDirDegrees,DateUTC
12:55 AM,57.4,46.2,66,30.05,6.2,WNW,5.8,-,N/A,,Clear,300,2013-02-21 21:55:00
1:55 AM,57.2,46.9,69,30.04,6.2,NW,8.1,-,N/A,,Clear,320,2013-02-21 22:55:00
2:55 AM,56.5,46.6,69,30.04,6.2,WNW,6.9,-,N/A,,Clear,300,2013-02-21 23:55:00
3:55 AM,53.8,46.6,77,30.04,6.2,WNW,5.8,-,N/A,,Clear,290,2013-02-22 00:55:00
4:55 AM,52.5,44.6,74,30.05,6.2,West,6.9,-,N/A,,Clear,260,2013-02-22 01:55:00
5:55 AM,52.5,46.6,80,30.07,6.2,West,6.9,-,N/A,,Clear,270,2013-02-22 02:55:00
6:55 AM,53.1,47.7,82,30.10,6.2,West,5.8,-,N/A,,Clear,280,2013-02-22 03:55:00
7:55 AM,60.4,54.3,80,30.12,6.2,WNW,6.9,-,N/A,,Clear,300,2013-02-22 04:55:00
8:55 AM,68.0,53.2,59,30.13,6.2,NW,9.2,-,N/A,,Clear,310,2013-02-22 05:55:00
9:55 AM,73.9,42.1,32,30.14,6.2,NNW,13.8,-,N/A,,Partly Cloudy,330,2013-02-22 06:55:00
10:55 AM,76.3,39.9,27,30.12,6.2,NW,11.5,-,N/A,,Scattered Clouds,320,2013-02-22 07:55:00
11:55 AM,78.3,36.7,22,30.09,6.2,NNW,12.7,18.4,N/A,,Scattered Clouds,340,2013-02-22 08:55:00
12:55 PM,79.0,33.8,19,30.06,6.2,NW,13.8,-,N/A,,Partly Cloudy,320,2013-02-22 09:55:00
1:55 PM,79.0,37.6,23,30.05,6.2,WNW,12.7,-,N/A,,Partly Cloudy,300,2013-02-22 10:55:00
2:55 PM,78.1,36.1,22,30.04,6.2,NW,15.0,-,N/A,,Clear,320,2013-02-22 11:55:00
3:55 PM,77.0,31.6,19,30.05,6.2,NW,15.0,19.6,N/A,,Clear,320,2013-02-22 12:55:00
4:55 PM,74.7,33.4,22,30.06,6.2,NW,12.7,-,N/A,,Clear,310,2013-02-22 13:55:00
5:55 PM,70.5,37.0,29,30.06,6.2,NW,9.2,-,N/A,,Clear,310,2013-02-22 14:55:00
6:55 PM,66.2,36.9,34,30.06,6.2,NNW,6.9,-,N/A,,Clear,340,2013-02-22 15:55:00
7:55 PM,67.5,35.4,31,30.07,6.2,North,9.2,-,N/A,,Clear,360,2013-02-22 16:55:00
8:55 PM,65.3,41.7,42,30.07,6.2,NNE,8.1,-,N/A,,Clear,20,2013-02-22 17:55:00
9:55 PM,63.9,48.7,58,30.06,6.2,North,6.9,-,N/A,,Clear,10,2013-02-22 18:55:00
10:55 PM,62.2,51.4,68,30.06,6.2,North,4.6,-,N/A,,Clear,10,2013-02-22 19:55:00
11:55 PM,56.8,47.3,70,30.06,6.2,Calm,Calm,-,N/A,,Clear,0,2013-02-22 20:55:00